[[{"header":{"parameterUnit":"m.s-1","parameterCategory":1,"la1":30.2991,"la2":30.254,"lo1":-89.0895,"lo2":-89.0444,"dy":0.0017,"dx":0.0017,"nx":28,"ny":28,"refTime":"2023-10-15T21:00:00:Z","depth":0,"parameterNumber":2,"parameterNumberName":"U-component_of_WINDS"},"data":[0,0,0,0,0,0,0,0,0,0,0,0,0,0,0,0,0,0,0,0,0,0,0,0,0,0,0,0,0,0,0,0,0,0,0,0,0,0,0,0,0,0,0,0,0,0,0,0,0,0,0,0,0,0,0,0,0,0,1.312,1.3119,0,1.3071,1.307,1.307,1.3035,1.3035,1.3035,1.3035,1.2983,1.2982,1.298,0,0,0,0,0,0,0,0,0,0,0,0,0,1.3182,1.3181,1.312,1.3119,1.3118,1.3071,1.307,1.3069,1.3035,1.3035,1.3035,1.3035,1.2983,1.2982,1.298,0,0,0,0,0,0,0,0,0,0,0,0,0,1.3146,1.3181,1.312,1.3096,1.3093,1.3071,1.307,1.3069,1.3036,1.3035,1.3035,1.3034,1.2983,1.2982,1.298,1.2977,0,0,1.2975,1.2974,0,0,0,0,0,0,0,0,1.3149,1.3144,1.31,1.3097,1.3094,1.3059,1.3073,1.3038,1.3036,1.3057,1.3035,1.3034,1.3008,1.3004,1.2996,1.2975,1.2973,1.2975,1.2974,1.2973,1.2972,0,0,0,0,0,0,0,1.3151,1.3146,1.31,1.3099,1.3096,1.3087,1.3082,1.3066,1.3035,1.3055,1.3053,1.3048,1.3007,1.2998,1.2995,1.2972,1.2975,1.2973,1.2972,1.2972,1.2946,1.2946,0,0,0,0,0,0,1.3158,1.3148,1.3102,1.3099,1.3121,1.3086,1.308,1.3071,1.3036,1.303,1.3048,1.3046,1.3001,1.2997,1.2993,1.2987,1.2973,1.2971,1.297,1.2946,1.2946,1.2946,0,0,0,0,0,0,1.3159,1.3154,1.3104,1.3123,1.3116,1.3086,1.3075,1.307,1.3061,1.303,1.3024,1.3045,1.3,1.2995,1.2981,1.2984,1.2971,1.2969,1.2945,1.2946,1.2946,1.2975,0,0,0,0,0,0,1.3161,1.3154,1.3153,1.3123,1.3115,1.3094,1.3075,1.3069,1.3058,1.3055,1.3025,1.302,1.3,1.2984,1.298,1.2982,1.2968,1.2945,1.2945,1.2946,1.2974,1.2976,1.2979,0,0,0,0,0,1.3163,1.3163,1.3153,1.3148,1.3113,1.3094,1.3089,1.3067,1.3059,1.3057,1.3037,1.3021,1.2985,1.2983,1.2978,1.2979,1.2944,1.2945,1.2946,1.2972,1.2976,1.2979,0,0,0,0,0,0,1.3193,1.3158,1.3147,1.3137,1.3119,1.3088,1.3085,1.3071,1.3054,1.3052,1.3024,1.3017,1.3007,1.2992,1.299,1.2975,1.2963,1.2963,1.2985,1.2988,1.299,1.2993,1.2966,0,0,0,0,0,1.3199,1.3187,1.3157,1.3151,1.3142,1.3116,1.3107,1.3091,1.3071,1.3062,1.3041,1.3022,1.3006,1.2996,1.298,1.2972,1.2965,1.297,1.2973,1.2975,1.2975,1.2969,1.2971,1.2949,1.2949,1.2949,0,0,1.321,1.3189,1.3183,1.3156,1.314,1.3128,1.3109,1.3097,1.3088,1.306,1.3046,1.3031,1.3007,1.2996,1.299,1.2983,1.298,1.2976,1.2978,1.2977,1.297,1.2972,1.2974,1.295,1.2949,1.2949,0,0,1.3223,1.3207,1.32,1.3185,1.3161,1.3144,1.3142,1.3114,1.3102,1.3088,1.3067,1.3056,1.303,1.3013,1.3002,1.3011,1.2995,1.3007,1.302,1.3014,1.3016,1.3018,1.302,1.3021,1.3007,1.3007,1.3007,0,1.324,1.3221,1.3198,1.3187,1.3176,1.3152,1.3144,1.3131,1.3103,1.3095,1.3088,1.3055,1.3037,1.3022,1.3025,1.3016,1.3013,1.3009,1.3018,1.3019,1.302,1.3022,1.3023,1.3008,1.3008,1.3008,1.3008,0,1.3242,1.3229,1.3226,1.3201,1.3189,1.318,1.3156,1.3147,1.3133,1.3116,1.3102,1.308,1.3059,1.3055,1.3041,1.3038,1.3034,1.3023,1.301,1.3024,1.3025,1.3026,1.301,1.301,1.3009,1.3009,0,0,1.3271,1.3234,1.3233,1.3221,1.3194,1.3184,1.3174,1.3154,1.3147,1.3129,1.3119,1.3099,1.3088,1.3075,1.3059,1.3055,1.3063,1.3044,1.3043,1.3047,1.3058,1.3066,1.3067,1.3053,1.3053,1.3053,1.306,0,1.328,1.3261,1.324,1.3228,1.3216,1.3194,1.3185,1.3168,1.3152,1.3139,1.3122,1.3107,1.3095,1.3087,1.3082,1.3063,1.3064,1.3062,1.3043,1.3042,1.3048,1.3068,1.3076,1.3083,1.306,1.306,1.306,0,1.3286,1.327,1.3257,1.3232,1.3226,1.3218,1.3199,1.3187,1.3167,1.3156,1.3142,1.3125,1.3113,1.3104,1.3087,1.3086,1.3077,1.3067,1.3066,1.3062,1.3051,1.3064,1.3085,1.3086,1.3061,1.3061,1.3061,0,1.3308,1.3283,1.3272,1.3263,1.3233,1.3228,1.3215,1.3195,1.3184,1.3167,1.316,1.3142,1.3132,1.3118,1.3097,1.3092,1.3082,1.3071,1.3072,1.3073,1.307,1.307,1.3089,1.3066,1.3066,1.3066,1.3066,0,1.3319,1.3311,1.3281,1.3274,1.3266,1.3243,1.3235,1.322,1.3202,1.3192,1.3172,1.3162,1.3135,1.3123,1.3106,1.3094,1.309,1.308,1.3076,1.3081,1.3083,1.3074,1.3073,1.3067,1.3067,1.3067,1.3067,0,1.3341,1.332,1.3307,1.328,1.3273,1.3268,1.3245,1.3237,1.3221,1.3208,1.3204,1.3178,1.3163,1.3141,1.3118,1.3107,1.3097,1.3091,1.3104,1.3101,1.3104,1.3103,1.3117,1.3117,1.3096,1.3096,1.3096,0,1.3348,1.3342,1.3315,1.3307,1.3295,1.3282,1.3272,1.325,1.324,1.3217,1.3212,1.3195,1.318,1.3156,1.3135,1.3117,1.311,1.3116,1.3107,1.3113,1.3109,1.3109,1.3108,1.3117,1.3118,1.3118,1.3118,0,1.3363,1.3354,1.334,1.3323,1.3311,1.3297,1.3281,1.3275,1.325,1.324,1.3224,1.3212,1.319,1.3173,1.3153,1.3139,1.3124,1.3122,1.3121,1.3126,1.3133,1.3129,1.3109,1.3121,1.3121,1.312,1.312,1.312,1.3377,1.3371,1.3351,1.3337,1.3323,1.3309,1.33,1.3284,1.327,1.325,1.3238,1.3223,1.3203,1.3175,1.3163,1.315,1.3144,1.3143,1.3143,1.3142,1.3144,1.3137,1.3146,1.3146,1.3146,1.3146,1.3146,0,1.3391,1.3377,1.3364,1.3343,1.3332,1.332,1.3302,1.3293,1.328,1.3264,1.325,1.3231,1.3215,1.3194,1.3176,1.317,1.3163,1.3166,1.3166,1.3163,1.3151,1.3153,1.3173,1.3173,1.3173,1.3173,1.3173,1.3173,1.3396,1.3385,1.3373,1.3355,1.3341,1.3326,1.3317,1.3304,1.3291,1.3272,1.3258,1.3245,1.3226,1.3207,1.3192,1.3186,1.318,1.3186,1.3178,1.3166,1.3164,1.3161,1.3163,1.3185,1.3185,1.319,1.319,1.3191]},{"header":{"parameterUnit":"m.s-1","parameterCategory":1,"la1":30.2991,"la2":30.254,"lo1":-89.0895,"lo2":-89.0444,"dy":0.0017,"dx":0.0017,"nx":28,"ny":28,"refTime":"2023-10-15T21:00:00:Z","depth":0,"parameterNumber":3,"parameterNumberName":"V-component_of_WINDS"},"data":[0,0,0,0,0,0,0,0,0,0,0,0,0,0,0,0,0,0,0,0,0,0,0,0,0,0,0,0,0,0,0,0,0,0,0,0,0,0,0,0,0,0,0,0,0,0,0,0,0,0,0,0,0,0,0,0,0,0,-5.239,-5.2393,0,-5.2603,-5.2605,-5.2608,-5.2541,-5.2536,-5.2532,-5.2527,-5.274,-5.275,-5.276,0,0,0,0,0,0,0,0,0,0,0,0,0,-5.1922,-5.1931,-5.239,-5.2393,-5.2395,-5.2603,-5.2605,-5.2608,-5.2541,-5.2536,-5.253,-5.2525,-5.2737,-5.2749,-5.2761,0,0,0,0,0,0,0,0,0,0,0,0,0,-5.2129,-5.1934,-5.239,-5.2387,-5.2389,-5.2602,-5.2606,-5.2609,-5.2543,-5.2536,-5.2529,-5.2523,-5.2733,-5.2748,-5.2762,-5.2989,0,0,-5.2808,-5.2814,0,0,0,0,0,0,0,0,-5.2117,-5.2146,-5.2385,-5.2388,-5.239,-5.2538,-5.2518,-5.2736,-5.2544,-5.2484,-5.2527,-5.2519,-5.2678,-5.2697,-5.2752,-5.2999,-5.3008,-5.2809,-5.2818,-5.2824,-5.2828,0,0,0,0,0,0,0,-5.2103,-5.2137,-5.2474,-5.2388,-5.2392,-5.2374,-5.2396,-5.2559,-5.2616,-5.2489,-5.2484,-5.2511,-5.2678,-5.2738,-5.2756,-5.3012,-5.2809,-5.2822,-5.2831,-5.2837,-5.3456,-5.3464,0,0,0,0,0,0,-5.2088,-5.2125,-5.2467,-5.248,-5.2234,-5.2388,-5.2412,-5.2498,-5.2615,-5.2626,-5.2516,-5.2507,-5.2716,-5.2739,-5.2764,-5.3038,-5.2824,-5.2838,-5.2847,-5.3449,-5.3458,-5.3466,0,0,0,0,0,0,-5.2078,-5.2119,-5.2459,-5.2302,-5.2344,-5.2403,-5.2499,-5.2505,-5.2565,-5.2635,-5.2645,-5.2567,-5.2711,-5.2743,-5.2934,-5.3045,-5.2845,-5.2858,-5.344,-5.3452,-5.3462,-5.3588,0,0,0,0,0,0,-5.2065,-5.2116,-5.2203,-5.2304,-5.2352,-5.2628,-5.2506,-5.2514,-5.2591,-5.2581,-5.2685,-5.2696,-5.2708,-5.2913,-5.2949,-5.3061,-5.287,-5.343,-5.3445,-5.3459,-5.3575,-5.3603,-5.3627,0,0,0,0,0,-5.2048,-5.2229,-5.2208,-5.225,-5.2464,-5.2634,-5.2661,-5.2673,-5.26,-5.2688,-5.2734,-5.2693,-5.3026,-5.2933,-5.2973,-5.3092,-5.3423,-5.3441,-5.3457,-5.3563,-5.3597,-5.3626,0,0,0,0,0,0,-5.2138,-5.2242,-5.222,-5.244,-5.2529,-5.2622,-5.2734,-5.2709,-5.282,-5.2805,-5.2814,-5.2838,-5.3035,-5.3082,-5.2976,-5.3318,-5.3214,-5.324,-5.328,-5.3313,-5.3339,-5.3324,-5.2882,0,0,0,0,0,-5.2184,-5.2315,-5.2398,-5.2584,-5.263,-5.2675,-5.2749,-5.2751,-5.2843,-5.288,-5.2939,-5.3028,-5.3153,-5.3235,-5.3354,-5.3581,-5.3603,-5.3682,-5.3708,-5.3729,-5.3752,-5.3875,-5.3912,-5.3522,-5.3522,-5.3522,0,0,-5.2279,-5.2352,-5.2434,-5.2604,-5.2673,-5.2807,-5.2707,-5.2853,-5.2953,-5.2901,-5.3087,-5.3133,-5.3233,-5.3444,-5.3539,-5.3489,-5.3864,-5.3751,-5.3767,-5.3778,-5.3897,-5.3934,-5.3966,-5.3534,-5.3532,-5.353,0,0,-5.2522,-5.259,-5.2753,-5.2825,-5.2931,-5.296,-5.2999,-5.3097,-5.3127,-5.3313,-5.3278,-5.3395,-5.361,-5.3684,-5.3749,-5.4021,-5.3987,-5.4059,-5.4195,-5.4316,-5.4346,-5.4374,-5.4472,-5.4506,-5.4081,-5.4081,-5.4081,0,-5.2626,-5.2829,-5.2839,-5.299,-5.3065,-5.3026,-5.3191,-5.3259,-5.3399,-5.3452,-5.3394,-5.3664,-5.3728,-5.3956,-5.4022,-5.4076,-5.4121,-5.4047,-5.4341,-5.4369,-5.4394,-5.4488,-5.4525,-5.4089,-5.4088,-5.4087,-5.4087,0,-5.2953,-5.3094,-5.3212,-5.335,-5.3439,-5.3596,-5.3629,-5.3717,-5.3711,-5.3745,-5.3936,-5.4012,-5.4146,-5.42,-5.4194,-5.4427,-5.4393,-5.4338,-5.4234,-5.444,-5.4528,-5.4563,-5.4101,-5.4098,-5.4096,-5.4093,0,0,-5.3259,-5.3401,-5.3444,-5.3507,-5.3622,-5.3731,-5.3885,-5.4018,-5.4094,-5.4191,-5.4321,-5.4504,-5.4455,-5.4529,-5.4531,-5.4637,-5.4849,-5.457,-5.4572,-5.462,-5.5111,-5.5152,-5.5194,-5.4827,-5.4834,-5.4839,-5.5103,0,-5.3512,-5.3786,-5.38,-5.4048,-5.4179,-5.4144,-5.4278,-5.4363,-5.4399,-5.4514,-5.4553,-5.4684,-5.4608,-5.4653,-5.4756,-5.4801,-5.4948,-5.4782,-5.4947,-5.4953,-5.4925,-5.524,-5.5284,-5.5529,-5.5137,-5.5143,-5.5147,0,-5.3845,-5.3955,-5.4217,-5.4314,-5.4369,-5.449,-5.4614,-5.4724,-5.4819,-5.4838,-5.4922,-5.4909,-5.5066,-5.4956,-5.5173,-5.506,-5.5128,-5.5161,-5.517,-5.5187,-5.5064,-5.5266,-5.5608,-5.5645,-5.5201,-5.5197,-5.5193,0,-5.4043,-5.4256,-5.4441,-5.4495,-5.4613,-5.4699,-5.4752,-5.484,-5.492,-5.5027,-5.5078,-5.5201,-5.5269,-5.5364,-5.5385,-5.5303,-5.5602,-5.5494,-5.5622,-5.5622,-5.5688,-5.5684,-5.6047,-5.573,-5.5729,-5.5728,-5.5728,0,-5.4326,-5.4488,-5.4532,-5.4646,-5.4826,-5.484,-5.5017,-5.5064,-5.5143,-5.5264,-5.524,-5.5354,-5.5374,-5.5492,-5.5509,-5.5687,-5.5717,-5.5736,-5.5739,-5.574,-5.5737,-5.5785,-5.5769,-5.5738,-5.5736,-5.5734,-5.5732,0,-5.4579,-5.4615,-5.4814,-5.491,-5.4938,-5.5067,-5.5148,-5.5257,-5.529,-5.5444,-5.5481,-5.5533,-5.5671,-5.5701,-5.5864,-5.5875,-5.6087,-5.6071,-5.6056,-5.6055,-5.6182,-5.6171,-5.659,-5.6646,-5.6291,-5.6294,-5.6297,0,-5.4757,-5.4882,-5.4991,-5.5072,-5.5129,-5.5259,-5.534,-5.5358,-5.5443,-5.5561,-5.5656,-5.5792,-5.5901,-5.6123,-5.6175,-5.63,-5.6288,-5.6427,-5.6307,-5.6304,-5.6292,-5.6285,-5.6298,-5.645,-5.6454,-5.6457,-5.6459,0,-5.5071,-5.5083,-5.5202,-5.5329,-5.5427,-5.5527,-5.5621,-5.5688,-5.5718,-5.5816,-5.5958,-5.6043,-5.6211,-5.6346,-5.6471,-5.6523,-5.6498,-5.6497,-5.6533,-5.6536,-5.6522,-5.6533,-5.612,-5.6487,-5.6485,-5.6482,-5.6481,-5.648,-5.5294,-5.5403,-5.5498,-5.5631,-5.5705,-5.5794,-5.5902,-5.5949,-5.6069,-5.6208,-5.621,-5.6365,-5.6457,-5.6622,-5.6683,-5.6804,-5.676,-5.6813,-5.6827,-5.684,-5.6853,-5.6502,-5.6826,-5.6825,-5.6825,-5.6824,-5.6823,0,-5.5607,-5.5667,-5.579,-5.5924,-5.603,-5.5997,-5.61,-5.619,-5.6327,-5.6416,-5.6525,-5.6688,-5.6819,-5.6881,-5.7011,-5.7096,-5.7087,-5.7129,-5.7124,-5.7137,-5.6883,-5.6839,-5.7134,-5.7134,-5.7134,-5.7134,-5.7134,-5.7134,-5.5783,-5.5967,-5.599,-5.621,-5.6267,-5.6421,-5.6483,-5.6565,-5.6636,-5.682,-5.693,-5.697,-5.7048,-5.7183,-5.7302,-5.7316,-5.7365,-5.7414,-5.7423,-5.7186,-5.7154,-5.7124,-5.7083,-5.7424,-5.7425,-5.7667,-5.7669,-5.7671]}]]